DW6494 Weather Reports


Display with metric or nautical units.
time (UTC)temp
F
wind
direction
speed
MPH
gust
MPH
rain 1hr
in
rain 24hr
in
rain mn
in
humidity
%
barometer
mb
20260505041533 58 129 9.0 12.0 0.00 0.00 0.00 62 1009.0
20260505041029 58 124 3.0 6.0 0.00 0.00 0.00 62 1009.0
20260505040530 59 128 6.0 8.0 0.00 0.00 0.00 62 1009.0
20260505040029 59 133 9.0 13.0 0.00 0.00 0.00 61 1009.0
20260505035529 60 131 6.0 13.0 0.00 0.00 0.00 60 1008.0
20260505035030 60 113 6.0 10.0 0.00 0.00 0.00 60 1008.0
20260505034529 60 137 6.0 9.0 0.00 0.00 0.00 57 1008.0
20260505034029 60 126 5.0 9.0 0.00 0.00 0.00 56 1008.0
20260505033530 60 61 2.0 4.0 0.00 0.00 0.00 55 1008.0
20260505033029 60 88 4.0 6.0 0.00 0.00 0.00 56 1008.0
20260505032529 61 87 3.0 5.0 0.00 0.00 0.00 55 1008.0
20260505032029 61 1 3.0 7.0 0.00 0.00 0.00 54 1008.0
20260505031529 61 87 5.0 5.0 0.00 0.00 0.00 55 1008.0
20260505031030 62 97 2.0 4.0 0.00 0.00 0.00 51 1008.0
20260505030530 62 112 3.0 6.0 0.00 0.00 0.00 43 1008.0
20260505030030 63 113 0.0 2.0 0.00 0.00 0.00 42 1008.0
20260505025530 63 0 0.0 0.0 0.00 0.00 0.00 41 1007.0
20260505025029 63 0 0.0 0.0 0.00 0.00 0.00 40 1007.0
20260505024533 63 0 0.0 0.0 0.00 0.00 0.00 40 1007.0
20260505024030 63 301 1.0 4.0 0.00 0.00 0.00 40 1007.0
20260505023529 64 0 0.0 0.0 0.00 0.00 0.00 41 1007.0
20260505023030 64 0 0.0 0.0 0.00 0.00 0.00 40 1007.0
20260505022529 64 14 0.0 2.0 0.00 0.00 0.00 40 1007.0
20260505022029 64 2 0.0 0.0 0.00 0.00 0.00 40 1007.0
20260505021529 64 138 4.0 6.0 0.00 0.00 0.00 40 1007.0
20260505021030 64 195 3.0 8.0 0.00 0.00 0.00 39 1007.0
20260505020529 65 208 3.0 4.0 0.00 0.00 0.00 39 1007.0
20260505020033 65 345 2.0 5.0 0.00 0.00 0.00 39 1007.0
20260505015530 65 171 7.0 11.0 0.00 0.00 0.00 39 1007.0
20260505015029 65 164 7.0 9.0 0.00 0.00 0.00 39 1007.0
20260505014530 65 345 5.0 7.0 0.00 0.00 0.00 39 1007.0
20260505014030 65 338 3.0 6.0 0.00 0.00 0.00 39 1007.0
20260505013048 65 170 6.0 13.0 0.00 0.00 0.00 39 1007.0
20260505012529 65 144 7.0 11.0 0.00 0.00 0.00 39 1007.0
20260505012030 65 148 13.0 16.0 0.00 0.00 0.00 38 1007.0
20260505011530 65 168 5.0 10.0 0.00 0.00 0.00 39 1007.0
20260505011029 65 148 7.0 10.0 0.00 0.00 0.00 39 1007.0
20260505010530 65 158 10.0 17.0 0.00 0.00 0.00 39 1007.0
20260505010029 66 144 17.0 21.0 0.00 0.00 0.00 39 1007.0
20260505005529 67 138 9.0 14.0 0.00 0.00 0.00 36 1007.0
20260505005029 68 148 11.0 16.0 0.00 0.00 0.00 30 1007.0
20260505004529 68 142 2.0 7.0 0.00 0.00 0.00 30 1007.0
20260505004030 68 158 8.0 13.0 0.00 0.00 0.00 30 1007.0
20260505003535 68 157 3.0 8.0 0.00 0.00 0.00 31 1007.0
20260505003030 68 63 1.0 4.0 0.00 0.00 0.00 31 1007.0
20260505002530 68 344 2.0 6.0 0.00 0.00 0.00 31 1007.0
20260505002029 69 306 4.0 9.0 0.00 0.00 0.00 31 1007.0
20260505001529 69 215 3.0 8.0 0.00 0.00 0.00 30 1007.0
20260505001029 69 0 0.0 0.0 0.00 0.00 0.00 32 1007.0
20260505000530 69 303 0.0 4.0 0.00 0.00 0.00 31 1007.0
20260505000029 70 329 0.0 1.0 0.00 0.00 0.00 30 1007.0
20260504235529 70 341 2.0 5.0 0.00 0.00 0.00 29 1007.0
20260504235029 69 151 0.0 2.0 0.00 0.00 0.00 31 1007.0
20260504234529 69 216 1.0 5.0 0.00 0.00 0.00 31 1007.0
20260504234029 69 306 5.0 12.0 0.00 0.00 0.00 31 1007.0
20260504233530 68 354 1.0 4.0 0.00 0.00 0.00 31 1007.0
20260504233029 68 335 3.0 6.0 0.00 0.00 0.00 32 1007.0
20260504232529 68 30 6.0 10.0 0.00 0.00 0.00 33 1007.0
20260504232030 69 141 6.0 11.0 0.00 0.00 0.00 33 1007.0
20260504231529 68 65 7.0 12.0 0.00 0.00 0.00 34 1007.0
20260504231031 68 107 5.0 11.0 0.00 0.00 0.00 34 1007.0
20260504230529 68 85 11.0 16.0 0.00 0.00 0.00 34 1007.0
20260504230030 68 72 6.0 11.0 0.00 0.00 0.00 32 1007.0
20260504225531 68 89 8.0 11.0 0.00 0.00 0.00 33 1007.0
20260504225029 69 75 11.0 15.0 0.00 0.00 0.00 32 1007.0
20260504224530 69 89 5.0 12.0 0.00 0.00 0.00 32 1007.0
20260504224029 69 85 11.0 19.0 0.00 0.00 0.00 33 1007.0
20260504223530 69 79 9.0 16.0 0.00 0.00 0.00 32 1007.0
20260504223031 69 83 6.0 11.0 0.00 0.00 0.00 32 1007.0
20260504222533 69 78 15.0 23.0 0.00 0.00 0.00 32 1007.0
20260504222030 69 64 9.0 17.0 0.00 0.00 0.00 32 1007.0
20260504221529 69 80 11.0 20.0 0.00 0.00 0.00 32 1007.0
20260504221029 70 89 13.0 28.0 0.00 0.00 0.00 31 1007.0
20260504220529 70 137 4.0 7.0 0.00 0.00 0.00 32 1007.0
20260504220029 70 309 3.0 6.0 0.00 0.00 0.00 29 1007.0
20260504215530 69 8 4.0 7.0 0.00 0.00 0.00 31 1007.0
20260504215029 69 316 5.0 10.0 0.00 0.00 0.00 31 1007.0
20260504214530 69 241 1.0 6.0 0.00 0.00 0.00 31 1007.0
20260504214030 69 305 6.0 12.0 0.00 0.00 0.00 32 1007.0
20260504213529 70 300 7.0 12.0 0.00 0.00 0.00 31 1007.0
20260504213031 70 285 11.0 18.0 0.00 0.00 0.00 31 1007.0
20260504212530 70 269 8.0 16.0 0.00 0.00 0.00 30 1007.0
20260504212032 71 283 4.0 8.0 0.00 0.00 0.00 30 1007.0
20260504211530 71 45 1.0 6.0 0.00 0.00 0.00 30 1007.0
20260504211029 72 164 6.0 14.0 0.00 0.00 0.00 29 1007.0
20260504210530 72 158 8.0 15.0 0.00 0.00 0.00 29 1007.0
20260504210029 72 36 4.0 10.0 0.00 0.00 0.00 30 1007.0
20260504205530 73 165 6.0 17.0 0.00 0.00 0.00 29 1007.0
20260504205032 74 126 4.0 8.0 0.00 0.00 0.00 29 1007.0
20260504204530 74 146 6.0 12.0 0.00 0.00 0.00 27 1007.0
20260504204030 73 209 5.0 9.0 0.00 0.00 0.00 28 1007.0
20260504203529 72 152 5.0 11.0 0.00 0.00 0.00 29 1007.0
20260504203031 72 145 9.0 15.0 0.00 0.00 0.00 25 1007.0
20260504202530 71 145 11.0 18.0 0.00 0.00 0.00 28 1007.0
20260504202030 71 178 6.0 16.0 0.00 0.00 0.00 30 1008.0
20260504201530 71 345 2.0 4.0 0.00 0.00 0.00 28 1008.0
20260504201029 72 310 4.0 8.0 0.00 0.00 0.00 25 1008.0
20260504200529 72 232 2.0 3.0 0.00 0.00 0.00 27 1008.0
20260504200029 72 140 2.0 6.0 0.00 0.00 0.00 27 1008.0
20260504195529 71 111 4.0 9.0 0.00 0.00 0.00 30 1008.0
20260504195031 72 175 6.0 9.0 0.00 0.00 0.00 29 1008.0
20260504194529 71 228 3.0 4.0 0.00 0.00 0.00 30 1008.0
20260504194029 71 152 13.0 19.0 0.00 0.00 0.00 30 1008.0
20260504193530 71 79 1.0 4.0 0.00 0.00 0.00 29 1008.0
20260504193030 70 151 9.0 13.0 0.00 0.00 0.00 31 1008.0
20260504192530 70 182 7.0 12.0 0.00 0.00 0.00 30 1008.0
20260504192030 71 154 11.0 17.0 0.00 0.00 0.00 30 1008.0
20260504191529 70 160 8.0 12.0 0.00 0.00 0.00 30 1008.0
20260504191029 70 147 8.0 15.0 0.00 0.00 0.00 32 1008.0
20260504190530 70 169 7.0 11.0 0.00 0.00 0.00 31 1008.0
20260504190030 69 136 3.0 5.0 0.00 0.00 0.00 32 1008.0
20260504185530 70 151 13.0 16.0 0.00 0.00 0.00 30 1009.0
20260504185030 70 153 9.0 13.0 0.00 0.00 0.00 32 1009.0
20260504184529 70 163 8.0 12.0 0.00 0.00 0.00 32 1009.0
20260504184031 69 157 9.0 12.0 0.00 0.00 0.00 32 1009.0
20260504183530 69 156 9.0 16.0 0.00 0.00 0.00 32 1009.0
20260504183030 69 156 4.0 8.0 0.00 0.00 0.00 32 1009.0
20260504182531 69 141 12.0 19.0 0.00 0.00 0.00 32 1009.0
20260504182032 70 143 8.0 12.0 0.00 0.00 0.00 32 1009.0
20260504181530 69 131 8.0 14.0 0.00 0.00 0.00 33 1009.0
20260504181030 70 162 8.0 11.0 0.00 0.00 0.00 32 1009.0
20260504180529 69 339 3.0 4.0 0.00 0.00 0.00 33 1009.0
20260504180030 69 143 4.0 8.0 0.00 0.00 0.00 34 1009.0
20260504175529 69 147 6.0 9.0 0.00 0.00 0.00 32 1009.0
20260504175032 69 170 7.0 13.0 0.00 0.00 0.00 32 1009.0
20260504174529 68 152 1.0 6.0 0.00 0.00 0.00 33 1009.0
20260504174030 68 156 10.0 14.0 0.00 0.00 0.00 33 1009.0
20260504173532 68 152 4.0 7.0 0.00 0.00 0.00 35 1010.0
20260504173030 68 159 7.0 15.0 0.00 0.00 0.00 34 1010.0
20260504172529 68 117 5.0 15.0 0.00 0.00 0.00 35 1010.0
20260504172032 67 145 11.0 17.0 0.00 0.00 0.00 34 1010.0
20260504171530 67 147 6.0 9.0 0.00 0.00 0.00 34 1010.0
20260504171029 67 149 9.0 11.0 0.00 0.00 0.00 33 1010.0
20260504170529 67 223 3.0 6.0 0.00 0.00 0.00 35 1010.0
20260504151030 63 20 4.0 5.0 0.00 0.00 0.00 44 1010.0
20260504150530 62 1 0.0 1.0 0.00 0.00 0.00 46 1010.0
20260504141029 59 72 5.0 6.0 0.00 0.00 0.00 49 1010.0
20260504140531 58 78 4.0 7.0 0.00 0.00 0.00 49 1010.0
20260504130532 54 85 0.0 1.0 0.00 0.00 0.00 60 1010.0
20260504110529 58 110 4.0 9.0 0.00 0.00 0.00 51 1010.0
20260504100529 58 28 4.0 4.0 0.00 0.00 0.00 41 1010.0
20260504081530 57 28 6.0 7.0 0.00 0.00 0.00 40 1010.0
20260504081029 56 37 5.0 7.0 0.00 0.00 0.00 42 1010.0
20260504080530 56 49 4.0 4.0 0.00 0.00 0.00 45 1010.0
20260504050530 60 66 5.0 6.0 0.00 0.00 0.00 30 1010.0
20260504045530 59 32 5.0 6.0 0.00 0.00 0.00 33 1010.0
20260504045029 60 32 4.0 5.0 0.00 0.00 0.00 33 1010.0
20260504044530 60 62 4.0 5.0 0.00 0.00 0.00 31 1010.0
20260504044029 60 37 4.0 5.0 0.00 0.00 0.00 31 1010.0
20260504043529 61 44 4.0 5.0 0.00 0.00 0.00 29 1010.0
20260504043029 61 50 5.0 7.0 0.00 0.00 0.00 28 1010.0
20260504042532 62 38 6.0 8.0 0.00 0.00 0.00 30 1010.0
20260504042030 62 79 1.0 3.0 0.00 0.00 0.00 27 1010.0